Thomasville, GA

9:15 PM EST on February 06, 2016 (GMT -0500)
Thomasville Municipal

Weather History for KTVI - June, 2013

Change the Weather History Date:

Friday, June 21, 2013

  Actual Average (KVLD) Record (KVLD)
Temperature  
Mean Temperature 80 °F 80 °F  
Max Temperature 89 °F 91 °F 102 °F (1998)
Min Temperature 71 °F 70 °F 62 °F (2005)
Cooling Degree Days 15 15  
Month to date cooling degree days 292  
Year to date cooling degree days 704  
Since 1 June cooling degree days 292  
Growing Degree Days 30 (Base 50)    
Moisture  
Dew Point 69 °F    
Average Humidity 74    
Maximum Humidity 100    
Minimum Humidity 43    
Precipitation  
Precipitation 0.00 in 0.21 in 1.72 in (1999)
Month to date precipitation 4.50  
Year to date precipitation 23.50  
Sea Level Pressure  
Sea Level Pressure 30.13 in    
Wind  
Wind Speed 6 mph (ENE)    
Max Wind Speed 14 mph    
Max Gust Speed 20 mph    
Visibility 10 miles    
Events      
T = Trace of Precipitation, MM = Missing Value Source: NWS Daily Summary

Daily Weather History Graph

Daily Weather History Graph

Search for Another Location

Airport or City:

Trip Planner

Search our weather history database for the weather conditions in past years. The results will help you decide how hot, cold, wet, or windy it might be!

Date:

Astronomy

Jun. 21, 2013 Rise Set
Actual Time 6:32 AM EDT 8:41 PM EDT
Civil Twilight 6:04 AM EDT 9:09 PM EDT
Nautical Twilight 5:31 AM EDT 9:43 PM EDT
Astronomical Twilight 4:54 AM EDT 10:20 PM EDT
Moon 6:55 PM EDT (6/21) 4:41 AM EDT (6/21)
Length of Visible Light 15h 04m
Length of Day
14h 09m
Waxing Gibbous, 95% of the Moon is Illuminated
Jun 21
Waxing Gibbous
Jun 23
Full
Jun 30
Last Quarter
Jul 8
New
Jul 15
First Quarter

Hourly Weather History & Observations

Time (EDT) Temp. Heat Index Dew Point Humidity Pressure Visibility Wind Dir Wind Speed Gust Speed Precip Events Conditions
12:15 AM 73.4 °F - 71.6 °F 94% 30.14 in 10.0 mi Calm Calm - N/A   Scattered Clouds
12:35 AM 73.4 °F - 71.6 °F 94% 30.13 in 10.0 mi East 5.8 mph - N/A   Clear
12:55 AM 73.4 °F - 69.8 °F 88% 30.13 in 10.0 mi ENE 4.6 mph - N/A   Clear
1:15 AM 73.4 °F - 69.8 °F 88% 30.13 in 10.0 mi East 5.8 mph - N/A   Clear
1:35 AM 71.6 °F - 69.8 °F 94% 30.13 in 10.0 mi ENE 5.8 mph - N/A   Scattered Clouds
1:55 AM 71.6 °F - 69.8 °F 94% 30.13 in 10.0 mi East 5.8 mph - N/A   Mostly Cloudy
2:15 AM 71.6 °F - 69.8 °F 94% 30.13 in 10.0 mi East 4.6 mph - N/A   Mostly Cloudy
2:35 AM 71.6 °F - 69.8 °F 94% 30.12 in 10.0 mi East 4.6 mph - N/A   Mostly Cloudy
2:55 AM 73.4 °F - 69.8 °F 88% 30.12 in 10.0 mi East 3.5 mph - N/A   Overcast
3:15 AM 73.4 °F - 69.8 °F 88% 30.11 in 10.0 mi ENE 4.6 mph - N/A   Mostly Cloudy
3:35 AM 73.4 °F - 69.8 °F 88% 30.12 in 10.0 mi East 4.6 mph - N/A   Overcast
3:55 AM 73.4 °F - 69.8 °F 88% 30.11 in 10.0 mi East 3.5 mph - N/A   Overcast
4:15 AM 73.4 °F - 71.6 °F 94% 30.11 in 10.0 mi ENE 4.6 mph - N/A   Overcast
4:35 AM 71.6 °F - 71.6 °F 100% 30.10 in 10.0 mi ENE 4.6 mph - N/A   Mostly Cloudy
4:55 AM 71.6 °F - 71.6 °F 100% 30.10 in 10.0 mi ENE 4.6 mph - N/A   Scattered Clouds
5:15 AM 71.6 °F - 71.6 °F 100% 30.10 in 10.0 mi East 4.6 mph - N/A   Scattered Clouds
5:35 AM 71.6 °F - 71.6 °F 100% 30.11 in 10.0 mi East 3.5 mph - N/A   Clear
5:55 AM 71.6 °F - 71.6 °F 100% 30.11 in 10.0 mi East 3.5 mph - N/A   Clear
6:15 AM 71.6 °F - 71.6 °F 100% 30.11 in 10.0 mi East 3.5 mph - N/A   Clear
6:35 AM 71.6 °F - 71.6 °F 100% 30.12 in 10.0 mi Calm Calm - N/A   Clear
6:55 AM 71.6 °F - 69.8 °F 94% 30.12 in 10.0 mi NE 3.5 mph - N/A   Clear
7:15 AM 71.6 °F - 71.6 °F 100% 30.13 in 10.0 mi NE 4.6 mph - N/A   Mostly Cloudy
7:35 AM 71.6 °F - 71.6 °F 100% 30.14 in 10.0 mi NE 6.9 mph - N/A   Overcast
7:55 AM 73.4 °F - 71.6 °F 94% 30.14 in 10.0 mi ENE 6.9 mph - N/A   Overcast
8:15 AM 73.4 °F - 71.6 °F 94% 30.15 in 10.0 mi ENE 6.9 mph - N/A   Overcast
8:35 AM 75.2 °F - 71.6 °F 89% 30.15 in 10.0 mi ENE 6.9 mph - N/A   Overcast
8:55 AM 77.0 °F - 71.6 °F 83% 30.16 in 10.0 mi East 10.4 mph - N/A   Overcast
9:15 AM 77.0 °F - 71.6 °F 83% 30.16 in 10.0 mi ENE 9.2 mph - N/A   Overcast
9:35 AM 78.8 °F - 69.8 °F 74% 30.17 in 10.0 mi East 10.4 mph - N/A   Mostly Cloudy
9:55 AM 78.8 °F - 69.8 °F 74% 30.17 in 10.0 mi East 10.4 mph - N/A   Mostly Cloudy
10:15 AM 80.6 °F 83.9 °F 69.8 °F 70% 30.17 in 10.0 mi ENE 9.2 mph - N/A   Overcast
10:35 AM 80.6 °F 83.9 °F 69.8 °F 70% 30.17 in 10.0 mi ESE 9.2 mph - N/A   Mostly Cloudy
10:55 AM 80.6 °F 83.2 °F 68.0 °F 65% 30.17 in 10.0 mi East 5.8 mph - N/A   Mostly Cloudy
11:15 AM 82.4 °F 85.4 °F 68.0 °F 62% 30.17 in 10.0 mi ESE 6.9 mph - N/A   Overcast
11:35 AM 80.6 °F 83.2 °F 68.0 °F 65% 30.17 in 10.0 mi NE 8.1 mph - N/A   Overcast
11:55 AM 82.4 °F 85.4 °F 68.0 °F 62% 30.17 in 10.0 mi ENE 6.9 mph - N/A   Overcast
12:15 PM 82.4 °F 85.4 °F 68.0 °F 62% 30.17 in 10.0 mi ENE 6.9 mph - N/A   Overcast
12:35 PM 84.2 °F 87.3 °F 68.0 °F 58% 30.17 in 10.0 mi ENE 6.9 mph - N/A   Mostly Cloudy
12:55 PM 86.0 °F 89.4 °F 68.0 °F 55% 30.16 in 10.0 mi NNE 8.1 mph - N/A   Mostly Cloudy
1:15 PM 86.0 °F 88.2 °F 66.2 °F 51% 30.15 in 10.0 mi NE 10.4 mph - N/A   Scattered Clouds
1:35 PM 86.0 °F 88.2 °F 66.2 °F 51% 30.15 in 10.0 mi ENE 8.1 mph - N/A   Mostly Cloudy
1:55 PM 86.0 °F 88.2 °F 66.2 °F 51% 30.14 in 10.0 mi NE 10.4 mph 16.1 mph N/A   Scattered Clouds
2:15 PM 87.8 °F 90.4 °F 66.2 °F 49% 30.14 in 10.0 mi NE 10.4 mph - N/A   Scattered Clouds
2:35 PM 86.0 °F 87.3 °F 64.4 °F 48% 30.13 in 10.0 mi NE 12.7 mph - N/A   Mostly Cloudy
2:55 PM 87.8 °F 89.4 °F 64.4 °F 46% 30.13 in 10.0 mi ENE 10.4 mph 16.1 mph N/A   Mostly Cloudy
3:15 PM 87.8 °F 90.4 °F 66.2 °F 49% 30.13 in 10.0 mi NNE 9.2 mph - N/A   Scattered Clouds
3:35 PM 87.8 °F 89.4 °F 64.4 °F 46% 30.12 in 10.0 mi ENE 11.5 mph 16.1 mph N/A   Scattered Clouds
3:55 PM 87.8 °F 89.4 °F 64.4 °F 46% 30.12 in 10.0 mi ENE 9.2 mph - N/A   Scattered Clouds
4:15 PM 87.8 °F 89.4 °F 64.4 °F 46% 30.11 in 10.0 mi NE 10.4 mph 18.4 mph N/A   Scattered Clouds
4:35 PM 87.8 °F 89.4 °F 64.4 °F 46% 30.11 in 10.0 mi NNE 13.8 mph - N/A   Scattered Clouds
4:55 PM 87.8 °F 89.4 °F 64.4 °F 46% 30.10 in 10.0 mi North 10.4 mph - N/A   Scattered Clouds
5:15 PM 89.6 °F 91.1 °F 64.4 °F 43% 30.10 in 10.0 mi NE 6.9 mph - N/A   Scattered Clouds
5:35 PM 87.8 °F 89.4 °F 64.4 °F 46% 30.09 in 10.0 mi NNE 8.1 mph - N/A   Clear
5:55 PM 87.8 °F 89.4 °F 64.4 °F 46% 30.09 in 10.0 mi NNE 11.5 mph - N/A   Clear
6:15 PM 87.8 °F 89.4 °F 64.4 °F 46% 30.09 in 10.0 mi NNE 10.4 mph 18.4 mph N/A   Scattered Clouds
6:35 PM 86.0 °F 87.3 °F 64.4 °F 48% 30.10 in 10.0 mi ENE 11.5 mph - N/A   Scattered Clouds
6:55 PM 87.8 °F 89.4 °F 64.4 °F 46% 30.09 in 10.0 mi NE 9.2 mph - N/A   Scattered Clouds
7:15 PM 86.0 °F 87.3 °F 64.4 °F 48% 30.10 in 10.0 mi ENE 11.5 mph - N/A   Clear
7:35 PM 86.0 °F 87.3 °F 64.4 °F 48% 30.11 in 10.0 mi NE 8.1 mph - N/A   Scattered Clouds
7:55 PM 86.0 °F 87.3 °F 64.4 °F 48% 30.11 in 10.0 mi ESE 12.7 mph 19.6 mph N/A   Mostly Cloudy
8:15 PM 80.6 °F 83.2 °F 68.0 °F 65% 30.12 in 10.0 mi ESE 9.2 mph 17.3 mph N/A   Overcast
8:35 PM 80.6 °F 83.9 °F 69.8 °F 70% 30.14 in 10.0 mi ESE 10.4 mph 19.6 mph N/A   Mostly Cloudy
8:55 PM 77.0 °F - 69.8 °F 78% 30.14 in 10.0 mi SSE 11.5 mph 17.3 mph N/A   Mostly Cloudy
9:15 PM 77.0 °F - 69.8 °F 78% 30.15 in 10.0 mi SSE 9.2 mph 16.1 mph N/A   Mostly Cloudy
9:35 PM 75.2 °F - 69.8 °F 83% 30.15 in 10.0 mi South 8.1 mph - N/A   Scattered Clouds
9:55 PM 73.4 °F - 69.8 °F 88% 30.14 in 10.0 mi SSE 5.8 mph - N/A   Clear
10:15 PM 73.4 °F - 69.8 °F 88% 30.14 in 10.0 mi South 3.5 mph - N/A   Clear
10:35 PM 73.4 °F - 69.8 °F 88% 30.15 in 10.0 mi Calm Calm - N/A   Clear
10:55 PM 73.4 °F - 69.8 °F 88% 30.14 in 10.0 mi Calm Calm - N/A   Clear
11:15 PM 71.6 °F - 69.8 °F 94% 30.14 in 10.0 mi Calm Calm - N/A   Clear
11:35 PM 71.6 °F - 69.8 °F 94% 30.13 in 10.0 mi Calm Calm - N/A   Clear
11:55 PM 71.6 °F - 69.8 °F 94% 30.13 in 10.0 mi Calm Calm - N/A   Clear